| time (UTC) | temp C | wind direction | speed KPH | gust KPH | rain 1hr cm | rain 24hr cm | rain mn cm | humidity % | barometer mb |
| 20260509150730 | 17 | 90 | 0.0 | 0.0 | 0.00 | 0.00 | 0.00 | 63 | 1034.3 |
| 20260509145815 | 17 | 90 | 0.0 | 0.0 | 0.00 | 0.00 | 0.00 | 64 | 1034.3 |
| 20260509144815 | 17 | 90 | 0.0 | 0.0 | 0.00 | 0.00 | 0.00 | 64 | 1034.2 |
| 20260509144716 | 17 | 90 | 0.0 | 0.0 | 0.00 | 0.00 | 0.00 | 64 | 1034.0 |
| 20260509143716 | 17 | 330 | 0.0 | 1.6 | 0.00 | 0.00 | 0.00 | 65 | 1034.1 |
| 20260509142716 | 17 | 247 | 0.0 | 0.0 | 0.00 | 0.00 | 0.00 | 65 | 1034.0 |
| 20260509141716 | 17 | 45 | 0.0 | 0.0 | 0.00 | 0.00 | 0.00 | 66 | 1034.1 |
| 20260509140717 | 17 | 360 | 0.0 | 0.0 | 0.00 | 0.00 | 0.00 | 68 | 1033.8 |
| 20260509135715 | 16 | 90 | 0.0 | 0.0 | 0.00 | 0.00 | 0.00 | 68 | 1033.8 |
| 20260509134714 | 16 | 90 | 0.0 | 3.2 | 0.00 | 0.00 | 0.00 | 68 | 1033.8 |
| 20260509133718 | 16 | 360 | 0.0 | 4.8 | 0.00 | 0.00 | 0.00 | 70 | 1033.9 |
| 20260509132815 | 16 | 225 | 0.0 | 3.2 | 0.00 | 0.00 | 0.00 | 71 | 1033.9 |
| 20260509131832 | 16 | 270 | 0.0 | 0.0 | 0.00 | 0.00 | 0.00 | 71 | 1033.8 |
| 20260509130914 | 15 | 318 | 0.0 | 3.2 | 0.00 | 0.00 | 0.00 | 72 | 1034.0 |
| 20260509125916 | 15 | 270 | 0.0 | 0.0 | 0.00 | 0.00 | 0.00 | 72 | 1034.0 |
| 20260509124914 | 15 | 26 | 0.0 | 8.0 | 0.00 | 0.00 | 0.00 | 73 | 1034.1 |
| 20260509124818 | 15 | 45 | 0.0 | 0.0 | 0.00 | 0.00 | 0.00 | 74 | 1034.0 |
| 20260509123915 | 14 | 45 | 0.0 | 1.6 | 0.00 | 0.00 | 0.00 | 74 | 1034.1 |
| 20260509122915 | 14 | 135 | 0.0 | 6.4 | 0.00 | 0.00 | 0.00 | 74 | 1034.1 |
| 20260509120916 | 13 | 360 | 0.0 | 0.0 | 0.00 | 0.00 | 0.00 | 75 | 1034.0 |
| 20260509120817 | 13 | 360 | 0.0 | 0.0 | 0.00 | 0.00 | 0.00 | 76 | 1034.1 |
| 20260509115816 | 13 | 360 | 0.0 | 0.0 | 0.00 | 0.00 | 0.00 | 76 | 1034.0 |
| 20260509113816 | 12 | 360 | 0.0 | 0.0 | 0.00 | 0.00 | 0.00 | 78 | 1034.2 |
| 20260509112816 | 12 | 22 | 0.0 | 1.6 | 0.00 | 0.00 | 0.00 | 78 | 1034.0 |
| 20260509111815 | 12 | 270 | 0.0 | 0.0 | 0.00 | 0.00 | 0.00 | 78 | 1034.0 |
| 20260509110815 | 12 | 270 | 0.0 | 0.0 | 0.00 | 0.00 | 0.00 | 77 | 1034.0 |
| 20260509105815 | 12 | 270 | 0.0 | 0.0 | 0.00 | 0.00 | 0.00 | 76 | 1033.9 |
| 20260509101915 | 12 | 360 | 0.0 | 0.0 | 0.00 | 0.00 | 0.00 | 75 | 1033.9 |
| 20260509100916 | 12 | 360 | 0.0 | 0.0 | 0.00 | 0.00 | 0.00 | 74 | 1033.9 |
| 20260509095916 | 12 | 360 | 0.0 | 0.0 | 0.00 | 0.00 | 0.00 | 74 | 1033.8 |
| 20260509094917 | 12 | 360 | 0.0 | 0.0 | 0.00 | 0.00 | 0.00 | 73 | 1033.8 |
| 20260509093916 | 12 | 360 | 0.0 | 0.0 | 0.00 | 0.00 | 0.00 | 72 | 1033.8 |
| 20260509092916 | 12 | 360 | 0.0 | 0.0 | 0.00 | 0.00 | 0.00 | 72 | 1033.8 |
| 20260509091915 | 12 | 360 | 0.0 | 0.0 | 0.00 | 0.00 | 0.00 | 71 | 1033.9 |
| 20260509085915 | 12 | 360 | 0.0 | 1.6 | 0.00 | 0.00 | 0.00 | 70 | 1033.9 |
| 20260509084915 | 12 | 360 | 0.0 | 0.0 | 0.00 | 0.00 | 0.00 | 70 | 1033.9 |
| 20260509083915 | 12 | 360 | 0.0 | 0.0 | 0.00 | 0.00 | 0.00 | 69 | 1034.1 |
| 20260509082915 | 12 | 360 | 0.0 | 0.0 | 0.00 | 0.00 | 0.00 | 68 | 1034.1 |
| 20260509081914 | 12 | 360 | 0.0 | 0.0 | 0.00 | 0.00 | 0.00 | 68 | 1034.0 |
| 20260509081815 | 12 | 360 | 0.0 | 0.0 | 0.00 | 0.00 | 0.00 | 68 | 1033.9 |
| 20260509080815 | 12 | 45 | 0.0 | 0.0 | 0.00 | 0.00 | 0.00 | 69 | 1034.1 |
| 20260509074914 | 12 | 135 | 0.0 | 0.0 | 0.00 | 0.00 | 0.00 | 70 | 1034.0 |
| 20260509073915 | 12 | 135 | 0.0 | 0.0 | 0.00 | 0.00 | 0.00 | 69 | 1034.0 |
| 20260509073816 | 12 | 135 | 0.0 | 0.0 | 0.00 | 0.00 | 0.00 | 69 | 1034.1 |
| 20260509072814 | 12 | 180 | 0.0 | 0.0 | 0.00 | 0.00 | 0.00 | 69 | 1034.2 |
| 20260509070914 | 12 | 180 | 0.0 | 0.0 | 0.00 | 0.00 | 0.00 | 69 | 1034.2 |
| 20260509065916 | 12 | 180 | 0.0 | 0.0 | 0.00 | 0.00 | 0.00 | 68 | 1034.4 |
| 20260509063917 | 12 | 135 | 0.0 | 0.0 | 0.00 | 0.00 | 0.00 | 68 | 1034.5 |
| 20260509062916 | 12 | 135 | 0.0 | 0.0 | 0.00 | 0.00 | 0.00 | 66 | 1034.5 |
| 20260509061815 | 12 | 135 | 0.0 | 0.0 | 0.00 | 0.00 | 0.00 | 67 | 1034.8 |
| 20260509060915 | 13 | 135 | 0.0 | 0.0 | 0.00 | 0.00 | 0.00 | 66 | 1034.8 |
| 20260509055014 | 13 | 135 | 0.0 | 0.0 | 0.00 | 0.00 | 0.00 | 66 | 1034.8 |
| 20260509054014 | 13 | 135 | 0.0 | 0.0 | 0.00 | 0.00 | 0.00 | 65 | 1034.9 |
| 20260509053016 | 13 | 135 | 0.0 | 0.0 | 0.00 | 0.00 | 0.00 | 64 | 1035.0 |
| 20260509051915 | 13 | 135 | 0.0 | 0.0 | 0.00 | 0.00 | 0.00 | 64 | 1035.2 |
| 20260509045916 | 13 | 135 | 0.0 | 0.0 | 0.00 | 0.00 | 0.00 | 63 | 1035.1 |
| 20260509043917 | 13 | 135 | 0.0 | 0.0 | 0.00 | 0.00 | 0.00 | 63 | 1035.1 |
| 20260509042915 | 13 | 135 | 0.0 | 0.0 | 0.00 | 0.00 | 0.00 | 63 | 1035.2 |
| 20260509042014 | 13 | 135 | 0.0 | 0.0 | 0.00 | 0.00 | 0.00 | 62 | 1035.1 |
| 20260509041916 | 13 | 135 | 0.0 | 0.0 | 0.00 | 0.00 | 0.00 | 62 | 1035.2 |
| 20260509035919 | 13 | 135 | 0.0 | 0.0 | 0.00 | 0.00 | 0.00 | 60 | 1035.2 |
| 20260509034919 | 13 | 135 | 0.0 | 0.0 | 0.00 | 0.00 | 0.00 | 61 | 1035.1 |
| 20260509033921 | 13 | 135 | 0.0 | 0.0 | 0.00 | 0.00 | 0.00 | 61 | 1035.2 |
| 20260509032919 | 13 | 135 | 0.0 | 0.0 | 0.00 | 0.00 | 0.00 | 60 | 1035.2 |
| 20260509032019 | 13 | 135 | 0.0 | 0.0 | 0.00 | 0.00 | 0.00 | 60 | 1035.2 |
| 20260509030021 | 14 | 135 | 0.0 | 0.0 | 0.00 | 0.00 | 0.00 | 58 | 1035.1 |
| 20260509025020 | 14 | 135 | 0.0 | 0.0 | 0.00 | 0.00 | 0.00 | 58 | 1035.1 |
| 20260509024020 | 14 | 135 | 0.0 | 0.0 | 0.00 | 0.00 | 0.00 | 55 | 1035.2 |
| 20260509023020 | 14 | 135 | 0.0 | 0.0 | 0.00 | 0.00 | 0.00 | 56 | 1035.3 |
| 20260509022918 | 14 | 135 | 0.0 | 0.0 | 0.00 | 0.00 | 0.00 | 56 | 1035.2 |
| 20260509021921 | 15 | 135 | 0.0 | 0.0 | 0.00 | 0.00 | 0.00 | 55 | 1035.1 |
| 20260509021821 | 15 | 135 | 0.0 | 0.0 | 0.00 | 0.00 | 0.00 | 55 | 1035.1 |
| 20260509020919 | 15 | 135 | 0.0 | 0.0 | 0.00 | 0.00 | 0.00 | 53 | 1035.1 |
| 20260509020820 | 15 | 135 | 0.0 | 0.0 | 0.00 | 0.00 | 0.00 | 54 | 1035.1 |
| 20260509015821 | 15 | 135 | 0.0 | 0.0 | 0.00 | 0.00 | 0.00 | 55 | 1035.0 |
| 20260509014819 | 15 | 135 | 0.0 | 0.0 | 0.00 | 0.00 | 0.00 | 52 | 1034.8 |
| 20260509013819 | 15 | 135 | 0.0 | 0.0 | 0.00 | 0.00 | 0.00 | 55 | 1035.0 |
| 20260509012819 | 15 | 135 | 0.0 | 0.0 | 0.00 | 0.00 | 0.00 | 54 | 1034.8 |
| 20260509011819 | 15 | 135 | 0.0 | 0.0 | 0.00 | 0.00 | 0.00 | 52 | 1034.7 |
| 20260509010819 | 15 | 135 | 0.0 | 0.0 | 0.00 | 0.00 | 0.00 | 53 | 1034.5 |
| 20260509005819 | 15 | 135 | 0.0 | 0.0 | 0.00 | 0.00 | 0.00 | 53 | 1034.5 |
| 20260509004820 | 15 | 135 | 0.0 | 0.0 | 0.00 | 0.00 | 0.00 | 53 | 1034.1 |
| 20260509003919 | 15 | 135 | 0.0 | 0.0 | 0.00 | 0.00 | 0.00 | 51 | 1033.9 |
| 20260509002919 | 15 | 135 | 0.0 | 0.0 | 0.00 | 0.00 | 0.00 | 50 | 1033.7 |
| 20260509001919 | 15 | 135 | 0.0 | 0.0 | 0.00 | 0.00 | 0.00 | 47 | 1033.6 |
| 20260509001820 | 15 | 135 | 0.0 | 0.0 | 0.00 | 0.00 | 0.00 | 48 | 1033.7 |
| 20260509001719 | 15 | 135 | 0.0 | 0.0 | 0.00 | 0.00 | 0.00 | 48 | 1033.6 |
| 20260509000719 | 15 | 135 | 0.0 | 0.0 | 0.00 | 0.00 | 0.00 | 48 | 1033.6 |
| 20260508235721 | 15 | 135 | 0.0 | 0.0 | 0.00 | 0.00 | 0.00 | 47 | 1033.5 |
| 20260508234819 | 16 | 135 | 0.0 | 0.0 | 0.00 | 0.00 | 0.00 | 46 | 1033.6 |
| 20260508232920 | 16 | 135 | 0.0 | 0.0 | 0.00 | 0.00 | 0.00 | 46 | 1033.3 |
| 20260508231921 | 16 | 135 | 0.0 | 0.0 | 0.00 | 0.00 | 0.00 | 45 | 1033.2 |
| 20260508230919 | 17 | 135 | 0.0 | 0.0 | 0.00 | 0.00 | 0.00 | 44 | 1033.1 |
| 20260508225920 | 17 | 135 | 0.0 | 0.0 | 0.00 | 0.00 | 0.00 | 44 | 1033.1 |
| 20260508223922 | 17 | 135 | 0.0 | 0.0 | 0.00 | 0.00 | 0.00 | 42 | 1032.9 |
| 20260508222920 | 18 | 135 | 0.0 | 0.0 | 0.00 | 0.00 | 0.00 | 41 | 1033.1 |
| 20260508221935 | 17 | 135 | 0.0 | 0.0 | 0.00 | 0.00 | 0.00 | 40 | 1033.1 |
| 20260508220921 | 18 | 135 | 0.0 | 0.0 | 0.00 | 0.00 | 0.00 | 41 | 1033.0 |
| 20260508215919 | 18 | 135 | 0.0 | 0.0 | 0.00 | 0.00 | 0.00 | 40 | 1033.1 |
| 20260508215820 | 18 | 135 | 0.0 | 0.0 | 0.00 | 0.00 | 0.00 | 40 | 1033.2 |
| 20260508215720 | 18 | 135 | 0.0 | 0.0 | 0.00 | 0.00 | 0.00 | 40 | 1033.2 |
| 20260508214719 | 18 | 135 | 0.0 | 0.0 | 0.00 | 0.00 | 0.00 | 38 | 1033.1 |
| 20260508212722 | 18 | 178 | 0.0 | 1.6 | 0.00 | 0.00 | 0.00 | 35 | 1032.9 |
| 20260508211819 | 18 | 170 | 0.0 | 4.8 | 0.00 | 0.00 | 0.00 | 34 | 1032.9 |
| 20260508210819 | 18 | 52 | 0.0 | 1.6 | 0.00 | 0.00 | 0.00 | 36 | 1033.1 |
| 20260508205818 | 18 | 180 | 0.0 | 1.6 | 0.00 | 0.00 | 0.00 | 35 | 1033.3 |
| 20260508204819 | 18 | 135 | 0.0 | 0.0 | 0.00 | 0.00 | 0.00 | 37 | 1033.3 |
| 20260508202822 | 20 | 180 | 0.0 | 0.0 | 0.00 | 0.00 | 0.00 | 34 | 1033.4 |
| 20260508201820 | 18 | 202 | 0.0 | 1.6 | 0.00 | 0.00 | 0.00 | 34 | 1033.3 |
| 20260508200919 | 18 | 180 | 0.0 | 3.2 | 0.00 | 0.00 | 0.00 | 36 | 1033.3 |
| 20260508195921 | 18 | 152 | 0.0 | 3.2 | 0.00 | 0.00 | 0.00 | 35 | 1033.5 |
| 20260508194920 | 19 | 180 | 0.0 | 0.0 | 0.00 | 0.00 | 0.00 | 33 | 1033.4 |
| 20260508193918 | 19 | 180 | 0.0 | 0.0 | 0.00 | 0.00 | 0.00 | 33 | 1033.5 |
| 20260508191921 | 19 | 178 | 0.0 | 3.2 | 0.00 | 0.00 | 0.00 | 34 | 1033.5 |
| 20260508190920 | 19 | 123 | 3.2 | 14.5 | 0.00 | 0.00 | 0.00 | 33 | 1033.6 |
| 20260508190019 | 19 | 180 | 0.0 | 1.6 | 0.00 | 0.00 | 0.00 | 32 | 1033.5 |
| 20260508184120 | 20 | 236 | 0.0 | 1.6 | 0.00 | 0.00 | 0.00 | 32 | 1033.6 |
| 20260508183119 | 20 | 175 | 1.6 | 6.4 | 0.00 | 0.00 | 0.00 | 32 | 1033.7 |
| 20260508182218 | 20 | 9 | 1.6 | 4.8 | 0.00 | 0.00 | 0.00 | 32 | 1034.0 |
| 20260508180319 | 18 | 180 | 0.0 | 3.2 | 0.00 | 0.00 | 0.00 | 35 | 1034.0 |
| 20260508175417 | 18 | 136 | 0.0 | 6.4 | 0.00 | 0.00 | 0.00 | 35 | 1034.1 |
| 20260508174419 | 18 | 135 | 0.0 | 1.6 | 0.00 | 0.00 | 0.00 | 33 | 1034.3 |
| 20260508173419 | 19 | 225 | 0.0 | 1.6 | 0.00 | 0.00 | 0.00 | 33 | 1034.4 |
| 20260508173317 | 19 | 199 | 1.6 | 6.4 | 0.00 | 0.00 | 0.00 | 32 | 1034.5 |
| 20260508165319 | 18 | 186 | 1.6 | 8.0 | 0.00 | 0.00 | 0.00 | 36 | 1034.6 |
| 20260508165218 | 18 | 141 | 0.0 | 1.6 | 0.00 | 0.00 | 0.00 | 36 | 1034.5 |
| 20260508163219 | 18 | 159 | 0.0 | 3.2 | 0.00 | 0.00 | 0.00 | 37 | 1034.9 |
| 20260508162220 | 18 | 168 | 0.0 | 1.6 | 0.00 | 0.00 | 0.00 | 36 | 1035.3 |
| 20260508161219 | 18 | 90 | 0.0 | 1.6 | 0.00 | 0.00 | 0.00 | 34 | 1035.4 |
| 20260508160220 | 18 | 180 | 0.0 | 0.0 | 0.00 | 0.00 | 0.00 | 36 | 1035.6 |
| 20260508155222 | 17 | 180 | 0.0 | 0.0 | 0.00 | 0.00 | 0.00 | 36 | 1035.6 |
| 20260508154220 | 17 | 126 | 1.6 | 4.8 | 0.00 | 0.00 | 0.00 | 36 | 1035.9 |
| 20260508153219 | 17 | 103 | 0.0 | 4.8 | 0.00 | 0.00 | 0.00 | 35 | 1036.0 |
| 20260508153121 | 17 | 32 | 0.0 | 1.6 | 0.00 | 0.00 | 0.00 | 35 | 1035.9 |
| 20260508152120 | 18 | 4 | 0.0 | 1.6 | 0.00 | 0.00 | 0.00 | 35 | 1035.9 |